Weather History for PAWS - December, 2013

Change the Weather History Date:

Friday, December 27, 2013

  Actual Average Record
Temperature  
Mean Temperature -3 °F -  
Max Temperature 10 °F 28 °F 46 °F (1982)
Min Temperature -14 °F 10 °F -38 °F (1949)
Degree Days  
Heating Degree Days 68    
Moisture  
Dew Point -10 °F    
Average Humidity 80    
Maximum Humidity 92    
Minimum Humidity 64    
Precipitation  
Precipitation 0.00 in - - ()
Sea Level Pressure  
Sea Level Pressure 29.89 in    
Wind  
Wind Speed 2 mph (West)    
Max Wind Speed 7 mph    
Max Gust Speed -    
Visibility 10 miles    
Events      
Averages and records for this station are not official NWS values.
T = Trace of Precipitation, MM = Missing Value Source: NWS Daily Summary

Daily Weather History Graph

Daily Weather History Graph

Search for Another Location

Airport or City:

Trip Planner

Search our weather history database for the weather conditions in past years. The results will help you decide how hot, cold, wet, or windy it might be!

Date:

Astronomy

Dec. 27, 2013 Rise Set
Actual Time 10:17 AM AKST 3:41 PM AKST
Civil Twilight 9:14 AM AKST 4:44 PM AKST
Nautical Twilight 8:14 AM AKST 5:45 PM AKST
Astronomical Twilight 7:19 AM AKST 6:39 PM AKST
Moon 3:54 AM AKST (12/27) 12:57 PM AKST (12/27)
Length of Visible Light 7h 29m
Length of Day
5h 23m
Waning Crescent, 27% of the Moon is Illuminated
Dec 27
Waning Crescent
Jan 1
New
Jan 7
First Quarter
Jan 15
Full
Jan 23
Last Quarter

Hourly Weather History & Observations

Time (AKST) Temp. Windchill Dew Point Humidity Pressure Visibility Wind Dir Wind Speed Gust Speed Precip Events Conditions
12:16 AM -9.4 °F - -14.8 °F 77% 29.77 in 10.0 mi Calm Calm - N/A   Clear
12:36 AM -11.2 °F -24.8 °F -16.6 °F 77% 29.78 in 10.0 mi ENE 5.8 mph - N/A   Clear
12:56 AM -9.4 °F - -13.0 °F 84% 29.77 in 10.0 mi Calm Calm - N/A   Clear
1:16 AM -11.2 °F - -16.6 °F 77% 29.77 in 10.0 mi Calm Calm - N/A   Clear
1:36 AM -9.4 °F - -14.8 °F 77% 29.77 in 10.0 mi Calm Calm - N/A   Clear
1:56 AM -9.4 °F - -18.4 °F 65% 29.77 in 10.0 mi Calm Calm - N/A   Clear
2:16 AM -11.2 °F - -18.4 °F 70% 29.78 in 10.0 mi Calm Calm - N/A   Clear
2:36 AM -11.2 °F - -14.8 °F 84% 29.78 in 10.0 mi Calm Calm - N/A   Clear
2:56 AM -11.2 °F - -18.4 °F 70% 29.78 in 10.0 mi Calm Calm - N/A   Clear
3:16 AM -13.0 °F -22.7 °F -16.6 °F 84% 29.79 in 10.0 mi West 3.5 mph - N/A   Clear
3:36 AM -11.2 °F - -18.4 °F 70% 29.80 in 10.0 mi Calm Calm - N/A   Clear
3:56 AM -13.0 °F - -16.6 °F 84% 29.81 in 10.0 mi Calm Calm - N/A   Clear
4:16 AM -11.2 °F - -14.8 °F 84% 29.81 in 10.0 mi Calm Calm - N/A   Clear
4:36 AM -11.2 °F - -20.2 °F 64% 29.81 in 10.0 mi Calm Calm - N/A   Clear
4:56 AM -13.0 °F - -16.6 °F 84% 29.81 in 10.0 mi Calm Calm - N/A   Clear
5:16 AM -13.0 °F - -18.4 °F 77% 29.82 in 10.0 mi Calm Calm - N/A   Clear
5:36 AM -11.2 °F - -18.4 °F 70% 29.83 in 10.0 mi Calm Calm - N/A   Clear
5:56 AM -13.0 °F - -20.2 °F 70% 29.83 in 10.0 mi Calm Calm - N/A   Clear
6:16 AM -14.8 °F - -16.6 °F 92% 29.83 in 10.0 mi Calm Calm - N/A   Clear
6:36 AM -13.0 °F - -18.4 °F 77% 29.83 in 10.0 mi Calm Calm - N/A   Clear
6:56 AM -14.8 °F -27.2 °F -20.2 °F 77% 29.84 in 10.0 mi West 4.6 mph - N/A   Clear
7:16 AM -14.8 °F - -18.4 °F 84% 29.84 in 10.0 mi Calm Calm - N/A   Clear
7:36 AM -11.2 °F - -14.8 °F 84% 29.84 in 10.0 mi Calm Calm - N/A   Clear
7:56 AM -11.2 °F -23.0 °F -18.4 °F 70% 29.84 in 10.0 mi WSW 4.6 mph - N/A   Clear
8:16 AM -13.0 °F - -20.2 °F 70% 29.85 in 10.0 mi Calm Calm - N/A   Clear
8:36 AM -14.8 °F - -18.4 °F 84% 29.86 in 10.0 mi Calm Calm - N/A   Clear
8:56 AM -13.0 °F -22.7 °F -16.6 °F 84% 29.86 in 10.0 mi WSW 3.5 mph - N/A   Clear
9:16 AM -11.2 °F - -16.6 °F 77% 29.87 in 10.0 mi Calm Calm - N/A   Clear
9:36 AM -13.0 °F - -18.4 °F 77% 29.88 in 10.0 mi Calm Calm - N/A   Partly Cloudy
9:56 AM -13.0 °F -25.1 °F -18.4 °F 77% 29.89 in 10.0 mi WSW 4.6 mph - N/A   Partly Cloudy
10:16 AM -14.8 °F -27.2 °F -18.4 °F 84% 29.89 in 10.0 mi West 4.6 mph - N/A   Partly Cloudy
10:36 AM -13.0 °F -28.6 °F -18.4 °F 77% 29.90 in 10.0 mi West 6.9 mph - N/A   Partly Cloudy
10:56 AM -11.2 °F -26.4 °F -14.8 °F 84% 29.90 in 10.0 mi West 6.9 mph - N/A   Clear
11:16 AM -11.2 °F -23.0 °F -18.4 °F 70% 29.91 in 10.0 mi WSW 4.6 mph - N/A   Clear
11:36 AM -11.2 °F -23.0 °F -16.6 °F 77% 29.91 in 10.0 mi West 4.6 mph - N/A   Partly Cloudy
11:56 AM -11.2 °F -20.6 °F -16.6 °F 77% 29.91 in 10.0 mi WSW 3.5 mph - N/A   Partly Cloudy
12:16 PM -11.2 °F -24.8 °F -16.6 °F 77% 29.93 in 10.0 mi WSW 5.8 mph - N/A   Mostly Cloudy
12:36 PM -9.4 °F - -14.8 °F 77% 29.93 in 10.0 mi Calm Calm - N/A   Scattered Clouds
12:56 PM -9.4 °F -18.6 °F -14.8 °F 77% 29.93 in 10.0 mi WSW 3.5 mph - N/A   Scattered Clouds
1:16 PM -9.4 °F -18.6 °F -13.0 °F 84% 29.93 in 10.0 mi WSW 3.5 mph - N/A   Clear
1:36 PM -7.6 °F - -11.2 °F 84% 29.93 in 10.0 mi Calm Calm - N/A   Scattered Clouds
1:56 PM -5.8 °F - -9.4 °F 84% 29.93 in 10.0 mi Calm Calm - N/A   Overcast
2:16 PM -4.0 °F -12.4 °F -7.6 °F 85% 29.93 in 10.0 mi WSW 3.5 mph - N/A   Overcast
2:36 PM -2.2 °F -10.4 °F -7.6 °F 78% 29.93 in 10.0 mi WSW 3.5 mph - N/A   Overcast
2:56 PM -2.2 °F - -7.6 °F 78% 29.93 in 10.0 mi Calm Calm - N/A   Overcast
3:16 PM -2.2 °F -10.4 °F -7.6 °F 78% 29.93 in 10.0 mi WSW 3.5 mph - N/A   Overcast
3:36 PM -2.2 °F -10.4 °F -5.8 °F 85% 29.93 in 10.0 mi West 3.5 mph - N/A   Overcast
3:56 PM -0.4 °F -12.0 °F -4.0 °F 85% 29.93 in 10.0 mi West 5.8 mph - N/A   Overcast
4:16 PM -0.4 °F -8.3 °F -5.8 °F 78% 29.94 in 10.0 mi West 3.5 mph - N/A   Overcast
4:36 PM -0.4 °F -8.3 °F -4.0 °F 85% 29.94 in 10.0 mi West 3.5 mph - N/A   Overcast
4:56 PM -0.4 °F -8.3 °F -4.0 °F 85% 29.95 in 10.0 mi West 3.5 mph - N/A   Overcast
5:16 PM 1.4 °F -8.3 °F -2.2 °F 85% 29.94 in 10.0 mi West 4.6 mph - N/A   Overcast
5:36 PM 1.4 °F -8.3 °F -2.2 °F 85% 29.94 in 10.0 mi West 4.6 mph - N/A   Overcast
5:56 PM 1.4 °F -6.2 °F -2.2 °F 85% 29.95 in 10.0 mi West 3.5 mph - N/A   Overcast
6:16 PM 3.2 °F - -0.4 °F 85% 29.95 in 10.0 mi Calm Calm - N/A   Overcast
6:36 PM 3.2 °F -4.2 °F -0.4 °F 85% 29.94 in 10.0 mi WNW 3.5 mph - N/A   Overcast
6:56 PM 3.2 °F -6.2 °F -0.4 °F 85% 29.95 in 10.0 mi West 4.6 mph - N/A   Overcast
7:16 PM 5.0 °F -4.1 °F 1.4 °F 85% 29.95 in 10.0 mi West 4.6 mph - N/A   Overcast
7:36 PM 5.0 °F -5.6 °F 1.4 °F 85% 29.95 in 10.0 mi West 5.8 mph - N/A   Overcast
7:56 PM 6.8 °F -0.1 °F 1.4 °F 79% 29.95 in 10.0 mi West 3.5 mph - N/A   Overcast
8:16 PM 6.8 °F -3.5 °F 1.4 °F 79% 29.96 in 10.0 mi West 5.8 mph - N/A   Overcast
8:36 PM 6.8 °F -0.1 °F 1.4 °F 79% 29.96 in 10.0 mi West 3.5 mph - N/A   Overcast
8:56 PM 6.8 °F -3.5 °F 3.2 °F 85% 29.95 in 10.0 mi West 5.8 mph - N/A   Overcast
9:16 PM 6.8 °F -2.0 °F 3.2 °F 85% 29.96 in 10.0 mi West 4.6 mph - N/A   Overcast
9:36 PM 8.6 °F -1.3 °F 3.2 °F 79% 29.95 in 10.0 mi West 5.8 mph - N/A   Overcast
9:56 PM 8.6 °F 0.1 °F 3.2 °F 79% 29.94 in 10.0 mi West 4.6 mph - N/A   Overcast
10:16 PM 8.6 °F 0.1 °F 3.2 °F 79% 29.94 in 10.0 mi West 4.6 mph - N/A   Overcast
10:36 PM 8.6 °F - 5.0 °F 85% 29.95 in 10.0 mi Calm Calm - N/A   Overcast
10:56 PM 8.6 °F - 5.0 °F 85% 29.94 in 10.0 mi Calm Calm - N/A   Overcast
11:16 PM 8.6 °F - 6.8 °F 92% 29.94 in 10.0 mi Calm Calm - N/A   Overcast
11:36 PM 8.6 °F 2.0 °F 6.8 °F 92% 29.94 in 10.0 mi WSW 3.5 mph - N/A   Overcast
11:56 PM 10.4 °F - 6.8 °F 85% 29.94 in 10.0 mi Calm Calm - N/A   Overcast